Temperature
5 5 5 5 5 5 5 5 5 5 5 5 6 6 6 6 6 6 6 6 6 6 6 6 6 6 6 6 5 5 5 5 5 5 5 5 5 4
5 5 5 5 5 5 5 5 5 5 4 5 5 5 5 6 6 6 5 5 6 6 6 6 6 5 5 5 5 5 5 5 5 4 4 4 4 4
4 4 4 4 4 4 5 5 5 4 4 4 5 5 5 5 5 5 5 5 5 5 5 5 5 5 5 5 4 4 4 4 4 4 4 4 4 4
3 3 3 3 4 4 4 4 4 4 4 4 4 4 4 4 4 4 4 4 4 4 4 4 4 4 4 4 4 4 4 4 4 4 3 3 3 3
2 3 3 3 3 3 3 3 3 3 3 3 4 4 4 4 4 4 4 4 4 4 4 4 4 4 4 4 4 4 4 3 3 3 3 3 3 2
2 2 2 2 2 3 3 3 3 3 3 3 3 3 3 3 3 3 3 3 3 3 3 3 3 3 3 3 3 3 3 3 3 3 2 2 2 2
1 1 1 2 2 2 2 2 2 2 2 2 2 2 2 2 2 2 2 3 3 3 3 3 3 3 3 3 3 3 2 2 2 2 2 2 2 1
1 1 1 1 1 1 1 1 1 2 2 2 1 1 2 2 2 2 2 2 2 2 2 2 2 2 2 2 2 2 2 2 2 1 1 1 1 1
-0 -0 0 0 0 0 1 1 1 1 1 1 1 1 1 1 1 1 1 1 1 1 1 1 2 2 2 2 2 2 1 1 1 1 1 1 1 1
-1 -1 -0 -0 -0 -0 -0 0 0 0 0 0 0 0 0 0 1 1 1 1 1 1 1 1 1 1 1 1 1 1 1 1 1 1 0 0 0 0
-1 -1 -1 -1 -1 -1 -1 -1 -0 -0 -0 -0 -0 -0 -0 -0 0 -0 -0 -0 -0 0 0 -0 0 0 0 1 1 0 0 0 0 0 -0 -0 -0 -0
-2 -2 -1 -1 -1 -1 -1 -1 -1 -1 -1 -1 -1 -1 -1 -1 -1 -1 -1 -1 -1 -1 -1 -1 -1 -1 -1 -0 -0 -0 -0 -0 -0 -0 -1 -1 -1 -1
-2 -2 -2 -2 -2 -2 -2 -2 -2 -2 -2 -2 -1 -1 -1 -1 -1 -1 -1 -1 -1 -2 -1 -1 -1 -1 -2 -2 -1 -1 -1 -1 -1 -1 -1 -1 -1 -1
-3 -3 -3 -3 -2 -2 -2 -2 -2 -2 -2 -2 -2 -2 -2 -2 -2 -2 -2 -2 -2 -2 -2 -2 -2 -2 -2 -2 -2 -2 -2 -2 -2 -2 -2 -2 -2 -2
-3 -3 -3 -3 -3 -3 -3 -3 -3 -3 -3 -3 -3 -3 -3 -3 -3 -3 -3 -3 -3 -3 -3 -3 -3 -3 -3 -3 -3 -3 -3 -2 -2 -2 -3 -3 -3 -3
-4 -4 -4 -4 -4 -3 -3 -3 -3 -3 -3 -3 -3 -3 -3 -3 -3 -3 -3 -3 -3 -3 -3 -3 -3 -3 -3 -3 -3 -3 -3 -3 -3 -3 -3 -3 -3 -3
-5 -4 -4 -4 -4 -4 -4 -4 -4 -4 -4 -4 -4 -4 -4 -4 -4 -4 -4 -4 -4 -4 -4 -4 -4 -4 -4 -4 -4 -4 -4 -4 -4 -4 -4 -4 -4 -4
-5 -5 -5 -5 -5 -5 -5 -5 -5 -4 -5 -5 -5 -5 -5 -5 -5 -5 -5 -5 -5 -5 -5 -4 -4 -4 -4 -4 -4 -4 -4 -4 -4 -4 -4 -4 -4 -4
-5 -5 -5 -5 -5 -5 -5 -5 -5 -5 -5 -5 -5 -5 -5 -5 -5 -5 -5 -5 -5 -5 -5 -5 -5 -5 -6 -6 -5 -5 -5 -5 -5 -5 -5 -5 -5 -4
-6 -6 -6 -6 -6 -6 -6 -6 -6 -6 -6 -6 -6 -6 -6 -6 -6 -6 -6 -6 -6 -6 -6 -6 -6 -6 -6 -6 -6 -5 -5 -5 -6 -5 -5 -5 -5 -5
-7 -7 -7 -7 -6 -6 -6 -6 -6 -6 -6 -6 -6 -6 -6 -6 -6 -6 -6 -6 -6 -6 -6 -6 -6 -6 -6 -6 -6 -6 -6 -6 -6 -6 -6 -6 -6 -5
-7 -7 -7 -7 -7 -7 -7 -7 -7 -7 -6 -6 -6 -6 -7 -7 -7 -7 -7 -7 -7 -7 -7 -7 -7 -7 -7 -7 -7 -7 -6 -6 -6 -6 -6 -6 -6 -6
-8 -8 -8 -8 -8 -7 -7 -7 -7 -7 -7 -7 -7 -7 -7 -7 -7 -7 -7 -7 -7 -7 -7 -7 -7 -7 -7 -7 -7 -7 -7 -7 -6 -6 -6 -6 -6 -6
Wind_Speed
4 4 4 3 3 3 3 4 4 4 5 3 2 2 2 3 4 5 5 4 4 4 4 5 5 5 5 6 6 6 6 7 7 7 8 7 8 8
3 4 4 3 3 3 3 4 4 4 4 3 2 2 3 3 4 5 5 5 5 5 4 4 4 4 4 5 5 6 6 6 6 7 8 8 8 9
3 4 4 4 3 3 3 4 4 4 5 4 2 2 3 3 3 4 5 5 5 5 5 5 4 4 4 4 5 5 5 6 6 6 7 8 9 9
5 5 5 4 4 4 4 4 4 4 4 5 4 3 4 3 3 4 4 5 5 5 5 5 5 5 5 5 5 5 5 5 5 6 7 8 8 9
6 6 6 5 5 4 4 4 4 4 4 4 4 3 3 2 3 3 3 3 4 4 5 6 6 5 5 5 6 6 6 6 6 6 7 7 8 9
6 6 6 6 6 5 4 5 4 4 4 4 3 3 2 2 3 3 3 3 3 3 5 5 5 6 7 6 6 7 6 6 7 7 7 8 8 8
5 6 5 5 5 4 4 5 4 4 4 4 3 3 3 3 3 3 4 3 3 2 3 4 4 5 5 6 6 6 6 6 7 7 8 8 8 9
6 5 5 5 5 5 5 5 6 6 6 5 4 5 5 4 3 3 3 3 3 2 3 4 4 4 5 6 6 6 7 7 8 8 8 8 8 9
6 6 5 5 6 5 5 5 5 5 6 6 6 6 6 5 5 5 5 4 4 2 3 4 3 5 5 6 7 7 8 8 8 8 8 9 9 9
6 6 6 5 5 6 5 5 4 5 5 5 6 6 5 5 5 5 5 4 4 3 3 4 4 5 5 6 7 8 8 8 8 8 9 9 9 10
5 6 6 6 6 6 5 5 5 4 3 4 5 5 6 6 5 3 3 3 4 3 3 3 3 4 4 5 6 7 8 8 8 8 8 9 8 8
5 5 6 7 7 7 6 6 6 5 4 3 3 3 3 4 5 4 4 4 3 3 2 3 3 2 3 3 3 4 6 7 8 8 8 8 8 7
4 4 5 7 7 8 7 6 6 5 4 4 3 2 2 2 3 3 3 3 4 4 3 2 3 3 3 3 4 5 5 5 6 7 8 8 8 8
5 4 4 6 7 7 6 5 6 5 4 3 3 3 3 2 2 2 3 3 4 5 5 4 3 4 4 4 4 4 5 5 5 6 7 8 8 9
4 5 5 5 5 5 5 5 4 4 3 4 4 3 3 2 2 2 2 2 3 4 5 5 4 4 5 5 5 5 5 5 5 5 6 6 6 6
3 3 4 4 4 3 3 3 3 3 3 4 3 2 2 2 2 2 2 2 3 3 3 4 5 5 5 6 6 6 5 4 4 5 6 6 7 7
3 2 3 2 2 2 2 2 2 2 3 3 3 3 2 2 2 2 2 2 3 3 3 3 4 4 6 5 5 5 5 5 5 5 5 6 6 7
3 2 2 3 3 3 2 2 2 2 2 2 3 3 3 3 3 2 2 3 3 4 3 3 3 3 3 4 6 6 5 5 5 5 5 6 7 7
2 2 2 2 2 2 3 3 3 2 2 2 3 3 3 3 3 3 3 3 3 4 4 3 3 3 4 6 4 5 5 5 5 5 5 6 8 7
1 1 2 2 2 2 3 2 2 2 2 3 3 3 3 3 3 3 3 4 4 4 4 4 4 4 5 5 5 5 7 6 5 6 6 6 7 9
2 2 2 2 2 2 3 2 3 3 3 3 3 3 3 3 3 4 4 5 5 5 5 5 5 6 4 3 4 5 5 7 8 6 6 6 6 6
2 2 2 3 3 2 2 3 3 3 3 3 3 3 4 4 4 5 4 4 5 5 5 5 4 4 4 5 6 7 7 7 8 10 11 10 6 5
3 3 3 3 3 3 3 3 3 3 3 3 4 4 4 4 4 4 4 5 5 5 5 5 4 4 5 5 6 6 8 8 6 6 6 9 12 15
Wind_Direction
224 228 223 220 218 220 221 225 229 235 240 240 236 248 249 234 243 241 241 240 243 254 255 257 262 260 263 262 259 259 255 251 251 256 258 261 265 271
226 230 230 226 224 217 220 228 239 238 239 243 251 281 271 256 239 238 238 237 238 250 260 258 251 252 260 268 269 265 259 252 253 258 260 261 264 269
224 227 235 232 227 222 221 224 230 235 241 252 264 276 265 267 250 239 237 241 240 243 253 256 249 248 252 262 269 276 270 256 252 259 266 268 269 270
223 225 230 231 227 226 221 224 228 235 241 248 262 264 263 264 263 249 244 241 245 244 246 247 250 252 251 254 265 274 276 267 260 261 265 268 273 277
224 225 227 226 228 227 227 227 229 231 233 235 247 261 263 260 263 270 259 247 251 250 241 239 244 246 247 254 261 264 265 266 265 267 270 270 272 275
226 226 227 226 232 227 231 230 226 226 227 228 235 246 258 257 256 258 263 256 258 265 249 244 246 245 244 250 255 257 256 261 268 267 270 275 279 280
227 228 229 227 238 242 238 235 226 225 224 228 234 241 245 242 242 252 264 264 265 265 262 257 260 259 253 249 252 258 258 261 267 272 270 270 273 276
228 230 230 226 230 238 243 240 235 229 225 228 236 239 244 251 247 250 260 268 261 247 273 272 266 262 265 262 260 259 258 263 266 269 275 272 271 274
227 228 230 231 229 232 233 229 236 243 237 233 236 242 246 248 246 249 248 258 266 276 272 268 270 267 275 266 258 252 255 261 264 268 272 276 274 273
231 229 227 229 227 223 225 226 232 241 238 234 238 244 249 250 241 247 256 268 283 269 268 266 272 277 283 273 254 252 257 261 263 269 273 276 277 277
234 233 229 228 224 220 225 227 233 244 245 236 242 248 250 245 236 238 240 248 267 262 264 263 272 288 285 274 261 250 259 263 267 269 272 278 283 281
232 231 231 230 223 223 226 229 230 236 232 235 239 236 239 232 227 230 231 238 261 259 243 248 262 291 283 273 283 281 271 268 269 269 270 275 280 282
235 233 230 224 227 233 238 239 237 235 231 231 233 239 241 237 234 238 240 241 247 256 249 261 263 270 262 275 283 281 280 281 280 277 271 271 272 273
240 239 233 227 232 240 244 234 235 233 226 225 227 236 240 245 250 258 264 265 264 267 262 259 262 261 263 274 276 277 282 283 281 280 281 278 274 269
244 237 235 235 240 240 228 223 226 222 216 223 228 238 248 255 258 274 291 291 290 279 260 259 266 267 261 259 270 277 282 280 272 276 280 280 278 278
243 230 224 230 232 220 217 219 223 217 213 221 230 241 250 250 248 256 266 272 279 287 291 283 273 267 267 265 260 265 269 266 272 280 284 283 278 271
236 240 231 215 208 203 205 209 214 213 218 219 225 233 238 246 260 272 274 271 266 275 289 303 308 294 278 267 262 261 266 275 277 281 281 281 276 270
229 225 225 216 213 213 214 221 227 219 217 219 222 228 235 241 252 261 260 260 266 269 275 285 295 299 287 271 247 256 265 275 282 281 279 279 280 278
239 234 241 236 227 226 228 231 235 228 218 215 220 226 231 234 238 245 250 258 266 270 270 269 268 266 273 280 272 245 268 284 286 283 277 276 279 282
284 261 256 256 249 238 234 235 233 226 218 218 222 226 226 230 236 240 245 256 264 271 272 267 263 262 262 272 279 281 273 274 277 279 283 285 285 286
292 287 279 274 267 253 243 239 236 232 226 224 224 227 228 228 236 242 246 253 261 264 264 268 274 278 280 275 274 278 283 274 270 271 277 282 287 284
288 285 283 278 273 263 251 239 235 233 228 230 229 228 230 231 233 239 244 250 256 262 269 277 286 281 268 260 271 281 290 298 292 279 266 259 263 262
284 283 278 276 270 265 258 247 242 240 234 232 230 231 230 232 237 241 245 249 253 259 267 275 280 277 272 269 273 281 286 293 297 298 290 275 263 265
Height
1530 1532 1533 1534 1535 1537 1538 1539 1541 1540 1540 1539 1540 1540 1541 1541 1541 1542 1542 1542 1542 1542 1542 1542 1542 1543 1543 1543 1543 1543 1543 1542 1542 1542 1541 1541 1540 1540
1526 1527 1528 1530 1531 1533 1534 1535 1536 1537 1536 1536 1536 1536 1537 1537 1538 1538 1538 1538 1538 1538 1538 1538 1538 1538 1538 1538 1538 1539 1539 1538 1538 1538 1537 1537 1536 1535
1522 1523 1524 1526 1527 1529 1530 1531 1532 1533 1532 1532 1532 1533 1533 1533 1534 1534 1534 1534 1534 1534 1534 1534 1534 1534 1534 1534 1534 1534 1534 1534 1534 1533 1533 1533 1532 1531
1517 1519 1520 1522 1523 1524 1526 1527 1528 1528 1529 1528 1528 1529 1529 1529 1529 1530 1530 1530 1530 1530 1530 1530 1530 1530 1530 1530 1530 1530 1530 1530 1529 1529 1529 1528 1527 1526
1513 1514 1515 1517 1518 1520 1521 1522 1523 1524 1524 1524 1524 1525 1525 1526 1526 1525 1525 1526 1526 1526 1526 1526 1526 1526 1526 1526 1526 1526 1526 1525 1525 1524 1523 1523 1522 1522
1508 1509 1511 1512 1513 1514 1516 1517 1518 1518 1520 1520 1520 1520 1521 1521 1522 1521 1521 1521 1521 1522 1522 1522 1522 1522 1522 1522 1521 1521 1521 1520 1520 1519 1518 1518 1517 1516
1504 1505 1506 1507 1508 1509 1511 1512 1513 1514 1515 1515 1515 1516 1516 1517 1517 1517 1517 1517 1517 1517 1517 1517 1517 1517 1517 1517 1516 1516 1516 1515 1515 1514 1514 1513 1512 1511
1499 1500 1501 1502 1503 1504 1506 1507 1509 1510 1510 1511 1511 1511 1512 1513 1513 1513 1513 1512 1512 1513 1512 1512 1512 1512 1512 1512 1511 1511 1511 1510 1510 1509 1508 1508 1507 1506
1494 1495 1496 1497 1498 1500 1500 1502 1503 1504 1506 1507 1506 1506 1507 1508 1508 1508 1508 1508 1508 1508 1508 1507 1507 1507 1507 1506 1506 1506 1506 1505 1505 1504 1504 1503 1502 1501
1489 1490 1492 1492 1494 1495 1496 1497 1498 1499 1500 1501 1502 1502 1503 1503 1503 1504 1503 1503 1503 1503 1503 1503 1502 1502 1502 1501 1501 1501 1501 1500 1500 1499 1498 1498 1497 1496
1485 1486 1487 1488 1489 1491 1492 1492 1493 1494 1495 1496 1497 1497 1498 1499 1499 1499 1499 1499 1498 1498 1499 1498 1497 1497 1496 1496 1496 1496 1496 1495 1495 1494 1493 1493 1492 1491
1480 1481 1483 1484 1485 1486 1487 1488 1488 1489 1490 1491 1492 1492 1493 1493 1494 1494 1494 1494 1493 1493 1493 1494 1493 1492 1491 1491 1491 1491 1491 1490 1490 1489 1489 1488 1487 1486
1476 1477 1478 1479 1480 1481 1482 1483 1484 1485 1486 1487 1487 1487 1487 1488 1488 1489 1489 1489 1489 1489 1489 1489 1488 1488 1487 1485 1485 1486 1485 1485 1484 1484 1483 1483 1482 1481
1471 1472 1473 1474 1475 1476 1477 1478 1479 1480 1481 1482 1482 1482 1483 1483 1483 1484 1484 1484 1484 1484 1484 1484 1483 1483 1482 1481 1480 1480 1480 1480 1479 1478 1478 1477 1477 1476
1466 1467 1468 1469 1471 1471 1472 1473 1474 1476 1476 1477 1477 1477 1478 1478 1478 1479 1479 1478 1479 1479 1479 1479 1479 1479 1478 1477 1476 1475 1475 1474 1474 1473 1473 1472 1471 1470
1462 1463 1464 1465 1466 1467 1467 1468 1469 1470 1471 1472 1472 1473 1473 1474 1474 1474 1474 1474 1474 1474 1474 1475 1474 1474 1474 1473 1472 1471 1470 1469 1468 1468 1467 1466 1466 1465
1459 1459 1460 1461 1461 1462 1463 1464 1465 1466 1467 1467 1468 1468 1469 1469 1470 1470 1470 1469 1469 1468 1469 1470 1470 1470 1469 1469 1467 1466 1465 1465 1464 1463 1462 1461 1460 1459
1456 1455 1456 1457 1458 1458 1459 1460 1461 1461 1462 1463 1464 1464 1465 1465 1465 1466 1466 1466 1465 1464 1464 1464 1464 1464 1464 1463 1463 1461 1460 1459 1458 1458 1457 1455 1454 1454
1452 1452 1453 1454 1454 1455 1455 1456 1457 1457 1458 1459 1459 1460 1460 1461 1461 1461 1461 1461 1461 1460 1460 1460 1460 1459 1458 1457 1456 1457 1456 1454 1453 1452 1452 1451 1448 1447
1449 1449 1450 1450 1451 1451 1452 1452 1453 1453 1454 1455 1455 1456 1456 1457 1457 1457 1457 1457 1457 1457 1456 1456 1456 1455 1454 1453 1451 1451 1452 1450 1448 1447 1446 1445 1443 1442
1446 1446 1447 1447 1447 1448 1449 1449 1449 1450 1450 1451 1451 1452 1452 1452 1452 1453 1453 1453 1453 1452 1452 1451 1451 1451 1450 1449 1448 1446 1446 1446 1444 1443 1441 1439 1437 1436
1443 1443 1443 1444 1444 1445 1445 1445 1446 1446 1446 1447 1447 1447 1448 1448 1448 1448 1448 1448 1448 1448 1447 1447 1447 1447 1446 1445 1443 1442 1440 1440 1439 1438 1437 1435 1433 1430
1440 1440 1440 1441 1441 1441 1441 1442 1442 1442 1442 1443 1443 1443 1444 1444 1444 1444 1444 1444 1444 1444 1443 1443 1442 1442 1441 1440 1439 1437 1436 1435 1433 1432 1431 1430 1429 1427